Change the Weather History Date:

Thursday, May 23, 2013

  Actual Average (KCWI) Record (KCWI)
Temperature  
Mean Temperature 58 °F -  
Max Temperature 67 °F 74 °F 92 °F (1975)
Min Temperature 47 °F 53 °F 32 °F (1963)
Degree Days  
Heating Degree Days 8    
Growing Degree Days 8 (Base 50)    
Moisture  
Dew Point 48 °F    
Average Humidity 70    
Maximum Humidity 93    
Minimum Humidity 42    
Precipitation  
Precipitation 0.05 in - - ()
Sea Level Pressure  
Sea Level Pressure 30.04 in    
Wind  
Wind Speed 9 mph (North)    
Max Wind Speed 17 mph    
Max Gust Speed 24 mph    
Visibility 9 miles    
Events Rain    
Averages and records for this station are not official NWS values.
T = Trace of Precipitation, MM = Missing Value Source: NWS Daily Summary

Daily Weather History Graph

Daily Weather History Graph

Search for Another Location

Airport or City:

Trip Planner

Search our weather history database for the weather conditions in past years. The results will help you decide how hot, cold, wet, or windy it might be!

Date:

Astronomy

May. 23, 2013 Rise Set
Actual Time 5:32 AM CDT 8:22 PM CDT
Civil Twilight 4:59 AM CDT 8:55 PM CDT
Nautical Twilight 4:18 AM CDT 9:36 PM CDT
Astronomical Twilight 3:30 AM CDT 10:25 PM CDT
Moon 6:53 PM CDT (5/23) 4:19 AM CDT (5/23)
Length of Visible Light 15h 55m
Length of Day
14h 49m
Waxing Gibbous, 97% of the Moon is Illuminated
May 23
Waxing Gibbous
May 24
Full
May 31
Last Quarter
Jun 8
New
Jun 16
First Quarter

Hourly Weather History & Observations

Time (CDT) Temp. Dew Point Humidity Pressure Visibility Wind Dir Wind Speed Gust Speed Precip Events Conditions
12:15 AM 60.1 °F 54.9 °F 83% 29.77 in 10.0 mi WSW 5.8 mph - N/A   Overcast
12:35 AM 59.9 °F 55.6 °F 86% 29.78 in 10.0 mi WSW 6.9 mph - N/A   Overcast
12:55 AM 59.5 °F 55.9 °F 88% 29.78 in 10.0 mi SW 8.1 mph - N/A   Light Drizzle
1:15 AM 59.0 °F 55.8 °F 89% 29.77 in 10.0 mi WSW 6.9 mph - N/A Rain Light Rain
1:35 AM 59.0 °F 56.3 °F 91% 29.77 in 10.0 mi SW 5.8 mph - N/A   Overcast
1:55 AM 59.0 °F 56.3 °F 91% 29.77 in 7.0 mi SW 4.6 mph - N/A   Overcast
2:15 AM 59.0 °F 56.3 °F 91% 29.78 in 7.0 mi WSW 4.6 mph - N/A Rain Rain
2:35 AM 59.0 °F 56.3 °F 91% 29.78 in 7.0 mi WSW 6.9 mph - N/A   Overcast
2:55 AM 59.0 °F 56.5 °F 91% 29.78 in 7.0 mi WSW 4.6 mph - N/A   Light Drizzle
3:15 AM 59.0 °F 56.5 °F 91% 29.79 in 5.0 mi West 5.8 mph - N/A Rain Rain
3:35 AM 58.8 °F 56.8 °F 93% 29.80 in 3.0 mi North 6.9 mph - 0.03 in Rain Heavy Rain
3:55 AM 56.7 °F 54.5 °F 92% 29.81 in 5.0 mi North 16.1 mph 20.7 mph 0.04 in   Light Drizzle
4:15 AM 56.3 °F 53.8 °F 91% 29.83 in 10.0 mi North 9.2 mph - N/A   Overcast
4:35 AM 55.0 °F 52.5 °F 91% 29.84 in 7.0 mi North 11.5 mph 21.9 mph N/A   Overcast
4:55 AM 54.7 °F 52.3 °F 92% 29.85 in 10.0 mi North 9.2 mph - N/A   Drizzle
5:15 AM 54.5 °F 52.2 °F 92% 29.86 in 10.0 mi North 10.4 mph - N/A Rain Light Rain
5:35 AM 54.7 °F 52.0 °F 91% 29.87 in 10.0 mi North 6.9 mph - N/A   Overcast
5:55 AM 54.7 °F 51.8 °F 90% 29.88 in 10.0 mi North 8.1 mph - N/A   Overcast
6:15 AM 54.9 °F 51.8 °F 89% 29.90 in 10.0 mi North 9.2 mph - N/A   Overcast
6:35 AM 54.7 °F 52.0 °F 91% 29.92 in 10.0 mi NNW 9.2 mph - N/A   Light Drizzle
6:55 AM 55.2 °F 51.8 °F 88% 29.93 in 10.0 mi North 10.4 mph - N/A   Overcast
7:15 AM 54.7 °F 51.8 °F 90% 29.94 in 4.0 mi North 12.7 mph 18.4 mph 0.01 in Rain Rain
7:35 AM 54.5 °F 51.6 °F 90% 29.96 in 10.0 mi North 11.5 mph 20.7 mph 0.01 in   Overcast
7:55 AM 54.3 °F 50.9 °F 88% 29.97 in 7.0 mi North 15.0 mph 23.0 mph 0.01 in   Overcast
8:15 AM 54.1 °F 50.7 °F 88% 29.99 in 10.0 mi North 15.0 mph 20.7 mph N/A   Overcast
8:35 AM 54.9 °F 51.1 °F 87% 30.00 in 10.0 mi North 10.4 mph 19.6 mph N/A   Overcast
8:55 AM 55.2 °F 49.8 °F 82% 30.01 in 10.0 mi North 15.0 mph - N/A   Overcast
9:15 AM 55.4 °F 49.3 °F 80% 30.03 in 10.0 mi North 17.3 mph 24.2 mph N/A   Overcast
9:35 AM 57.7 °F 50.0 °F 75% 30.03 in 10.0 mi North 15.0 mph 21.9 mph N/A   Overcast
9:55 AM 57.9 °F 49.5 °F 73% 30.04 in 10.0 mi North 16.1 mph 21.9 mph N/A   Mostly Cloudy
10:15 AM 59.0 °F 49.5 °F 71% 30.05 in 10.0 mi NNE 16.1 mph 24.2 mph N/A   Overcast
10:35 AM 57.9 °F 49.1 °F 72% 30.06 in 10.0 mi NNE 15.0 mph 20.7 mph N/A   Overcast
10:55 AM 59.0 °F 49.6 °F 71% 30.07 in 10.0 mi NNE 12.7 mph 16.1 mph N/A   Overcast
11:15 AM 59.0 °F 49.6 °F 71% 30.07 in 10.0 mi NNE 15.0 mph 18.4 mph N/A   Overcast
11:35 AM 59.0 °F 49.1 °F 70% 30.08 in 10.0 mi North 13.8 mph - N/A   Overcast
11:55 AM 58.8 °F 48.9 °F 70% 30.09 in 10.0 mi North 13.8 mph - N/A   Overcast
12:15 PM 61.3 °F 49.5 °F 65% 30.10 in 10.0 mi North 15.0 mph 19.6 mph N/A   Overcast
12:35 PM 62.2 °F 48.2 °F 60% 30.10 in 10.0 mi NE 15.0 mph 20.7 mph N/A   Mostly Cloudy
12:55 PM 60.8 °F 48.0 °F 63% 30.11 in 10.0 mi NE 15.0 mph 18.4 mph N/A   Mostly Cloudy
1:15 PM 62.1 °F 48.6 °F 61% 30.11 in 10.0 mi North 12.7 mph 17.3 mph N/A   Mostly Cloudy
1:35 PM 64.0 °F 47.3 °F 54% 30.11 in 10.0 mi North 15.0 mph 20.7 mph N/A   Scattered Clouds
1:55 PM 65.1 °F 47.1 °F 52% 30.12 in 10.0 mi North 12.7 mph - N/A   Scattered Clouds
2:15 PM 64.6 °F 47.7 °F 54% 30.12 in 10.0 mi North 12.7 mph 18.4 mph N/A   Mostly Cloudy
2:35 PM 64.8 °F 46.9 °F 52% 30.13 in 10.0 mi North 13.8 mph 20.7 mph N/A   Scattered Clouds
2:55 PM 65.1 °F 45.5 °F 49% 30.14 in 10.0 mi North 11.5 mph 20.7 mph N/A   Scattered Clouds
3:15 PM 65.5 °F 45.3 °F 48% 30.14 in 10.0 mi NNW 6.9 mph 16.1 mph N/A   Mostly Cloudy
3:35 PM 64.9 °F 45.0 °F 48% 30.14 in 10.0 mi NNE 4.6 mph - N/A   Mostly Cloudy
3:55 PM 64.9 °F 45.9 °F 50% 30.14 in 10.0 mi North 6.9 mph 16.1 mph N/A   Mostly Cloudy
4:15 PM 65.3 °F 46.4 °F 50% 30.15 in 10.0 mi North 9.2 mph - N/A   Mostly Cloudy
4:35 PM 64.6 °F 45.0 °F 49% 30.16 in 10.0 mi North 8.1 mph - N/A   Mostly Cloudy
4:55 PM 65.8 °F 44.6 °F 46% 30.16 in 10.0 mi North 11.5 mph - N/A   Mostly Cloudy
5:15 PM 65.8 °F 43.3 °F 44% 30.16 in 10.0 mi NNE 12.7 mph - N/A   Scattered Clouds
5:35 PM 63.7 °F 43.9 °F 48% 30.17 in 10.0 mi NNW 4.6 mph - N/A   Clear
5:55 PM 66.4 °F 43.0 °F 43% 30.17 in 10.0 mi North 11.5 mph 17.3 mph N/A   Scattered Clouds
6:15 PM 64.4 °F 44.4 °F 48% 30.18 in 10.0 mi North 6.9 mph - N/A   Clear
6:35 PM 65.3 °F 41.7 °F 42% 30.19 in 10.0 mi NNE 10.4 mph - N/A   Clear
6:55 PM 64.0 °F 41.9 °F 44% 30.19 in 10.0 mi North 9.2 mph - N/A   Clear
7:15 PM 63.5 °F 41.7 °F 45% 30.19 in 10.0 mi North 9.2 mph - N/A   Clear
7:35 PM 62.6 °F 41.4 °F 46% 30.20 in 10.0 mi North 8.1 mph - N/A   Clear
7:55 PM 61.0 °F 42.3 °F 50% 30.20 in 10.0 mi North 6.9 mph - N/A   Clear
8:15 PM 59.2 °F 41.7 °F 52% 30.21 in 10.0 mi North 5.8 mph - N/A   Clear
8:35 PM 56.5 °F 41.0 °F 56% 30.22 in 7.0 mi NNE 5.8 mph - N/A   Clear
8:55 PM 55.0 °F 40.5 °F 58% 30.22 in 10.0 mi NNE 6.9 mph - N/A   Clear
9:15 PM 55.6 °F 40.5 °F 57% 30.23 in 10.0 mi NNE 4.6 mph - N/A   Clear
9:35 PM 54.1 °F 40.6 °F 60% 30.24 in 10.0 mi NNE 4.6 mph - N/A   Clear
9:55 PM 53.8 °F 40.8 °F 62% 30.25 in 10.0 mi Calm Calm - N/A   Clear
10:15 PM 52.2 °F 41.2 °F 66% 30.26 in 10.0 mi Calm Calm - N/A   Clear
10:35 PM 49.6 °F 41.0 °F 72% 30.26 in 10.0 mi NE 4.6 mph - N/A   Clear
10:55 PM 50.9 °F 42.1 °F 72% 30.26 in 10.0 mi NNE 3.5 mph - N/A   Clear
11:15 PM 50.9 °F 42.1 °F 72% 30.27 in 10.0 mi North 3.5 mph - N/A   Clear
11:35 PM 50.2 °F 41.5 °F 72% 30.28 in 10.0 mi North 3.5 mph - N/A   Clear
11:55 PM 47.1 °F 41.9 °F 82% 30.28 in 10.0 mi NE 3.5 mph - N/A   Clear